When you browse on this site, cookies collect data to enhance your experience and personalize the content and advertising you see.
Visit our Privacy Policy to learn more. By continuing to use the site, you agree to this use of cookies and data.

Hourly Weather Bykovischi

Today, 6 July, Monday

Time Temperature Precipitation Wind Pressure Humidity
00:00 +16°C° 0 mm 1 mps 741 mmHg 93%
01:00 +16°C° 0 mm 1 mps 741 mmHg 94%
02:00 +15°C° 0 mm 2 mps 741 mmHg 96%
03:00 +16°C° 0 mm 3 mps 741 mmHg 94%
04:00 +17°C° 0 mm 3 mps 741 mmHg 92%
05:00 +18°C° 0 mm 4 mps 741 mmHg 91%
06:00 +19°C° 0 mm 4 mps 741 mmHg 85%
07:00 +21°C° 0 mm 4 mps 741 mmHg 80%
08:00 +22°C° 0 mm 5 mps 741 mmHg 74%
09:00 +23°C° 0 mm 5 mps 741 mmHg 71%
10:00 +26°C° 0 mm 5 mps 741 mmHg 67%
11:00 +27°C° 0 mm 5 mps 741 mmHg 64%
12:00 +27°C° 0.2 mm 5 mps 741 mmHg 65%
13:00 +27°C° 0.2 mm 5 mps 741 mmHg 67%
14:00 +27°C° 0.2 mm 5 mps 741 mmHg 69%
15:00 +27°C° 0.6 mm 4 mps 741 mmHg 75%
16:00 +26°C° 0.6 mm 4 mps 741 mmHg 81%
17:00 +26°C° 0.6 mm 3 mps 741 mmHg 87%
18:00 +25°C° 0.4 mm 3 mps 741 mmHg 89%
19:00 +24°C° 0.4 mm 2 mps 741 mmHg 92%
20:00 +21°C° 0.4 mm 2 mps 741 mmHg 94%
21:00 +21°C° 0.4 mm 2 mps 741 mmHg 95%
22:00 +20°C° 0.4 mm 2 mps 741 mmHg 96%
23:00 +20°C° 0.4 mm 2 mps 741 mmHg 97%

Tomorrow, 7 July, Tuesday

Time Temperature Precipitation Wind Pressure Humidity
00:00 +20°C° 0.1 mm 3 mps 741 mmHg 96%
01:00 +19°C° 0.1 mm 3 mps 741 mmHg 96%
02:00 +19°C° 0.1 mm 3 mps 741 mmHg 96%
03:00 +20°C° 0 mm 3 mps 741 mmHg 96%
04:00 +20°C° 0 mm 3 mps 741 mmHg 95%
05:00 +20°C° 0 mm 3 mps 741 mmHg 94%
06:00 +21°C° 0.1 mm 3 mps 741 mmHg 90%
07:00 +24°C° 0.1 mm 3 mps 741 mmHg 86%
08:00 +25°C° 0.1 mm 3 mps 741 mmHg 82%
09:00 +25°C° 0.4 mm 3 mps 741 mmHg 80%
10:00 +26°C° 0.4 mm 4 mps 741 mmHg 77%
11:00 +27°C° 0.4 mm 4 mps 741 mmHg 75%
12:00 +27°C° 0.6 mm 4 mps 741 mmHg 74%
13:00 +27°C° 0.6 mm 4 mps 740 mmHg 73%
14:00 +27°C° 0.6 mm 4 mps 740 mmHg 73%
15:00 +27°C° 1.1 mm 3 mps 740 mmHg 76%
16:00 +26°C° 1.1 mm 3 mps 740 mmHg 80%
17:00 +26°C° 1.1 mm 2 mps 740 mmHg 83%
18:00 +24°C° 1.1 mm 2 mps 740 mmHg 87%
19:00 +23°C° 1.1 mm 2 mps 740 mmHg 91%
20:00 +21°C° 1.1 mm 1 mps 740 mmHg 95%
21:00 +21°C° 0.5 mm 1 mps 740 mmHg 95%
22:00 +19°C° 0.5 mm 2 mps 740 mmHg 96%
23:00 +18°C° 0.5 mm 2 mps 740 mmHg 97%

Day after tomorrow, 8 July, Wednesday

Time Temperature Precipitation Wind Pressure Humidity
00:00 +18°C° 0.3 mm 2 mps 740 mmHg 97%
01:00 +17°C° 0.3 mm 2 mps 739 mmHg 98%
02:00 +17°C° 0.3 mm 2 mps 739 mmHg 98%
03:00 +17°C° 0.4 mm 2 mps 739 mmHg 98%
04:00 +18°C° 0.4 mm 1 mps 739 mmHg 98%
05:00 +18°C° 0.4 mm 1 mps 740 mmHg 98%
06:00 +17°C° 1 mm 2 mps 740 mmHg 98%
07:00 +18°C° 1 mm 2 mps 740 mmHg 98%
08:00 +18°C° 1 mm 2 mps 740 mmHg 97%
09:00 +18°C° 0.6 mm 2 mps 740 mmHg 97%
10:00 +17°C° 0.6 mm 3 mps 740 mmHg 97%
11:00 +17°C° 0.6 mm 3 mps 741 mmHg 96%
12:00 +16°C° 1 mm 3 mps 741 mmHg 97%
13:00 +16°C° 1 mm 3 mps 741 mmHg 97%
14:00 +16°C° 1 mm 3 mps 741 mmHg 97%
15:00 +14°C° 1 mm 3 mps 741 mmHg 97%
16:00 +14°C° 1 mm 3 mps 742 mmHg 98%
17:00 +13°C° 1 mm 3 mps 742 mmHg 98%
18:00 +14°C° 0.5 mm 2 mps 742 mmHg 98%
19:00 +14°C° 0.5 mm 2 mps 742 mmHg 98%
20:00 +14°C° 0.5 mm 2 mps 742 mmHg 98%
21:00 +14°C° 0 mm 1 mps 743 mmHg 98%
22:00 +13°C° 0 mm 1 mps 743 mmHg 98%
23:00 +13°C° 0 mm 1 mps 743 mmHg 98%

9 July, Thursday

Time Temperature Precipitation Wind Pressure Humidity
00:00 +13°C° 0 mm 1 mps 743 mmHg 97%
01:00 +13°C° 0 mm 1 mps 743 mmHg 97%
02:00 +13°C° 0 mm 1 mps 744 mmHg 97%
03:00 +13°C° 0 mm 1 mps 743 mmHg 96%
04:00 +13°C° 0 mm 1 mps 743 mmHg 96%
05:00 +14°C° 0 mm 1 mps 743 mmHg 95%
06:00 +14°C° 0.2 mm 1 mps 743 mmHg 93%
07:00 +15°C° 0.2 mm 1 mps 743 mmHg 91%
08:00 +15°C° 0.2 mm 0 mps 743 mmHg 89%
09:00 +16°C° 0.5 mm 1 mps 743 mmHg 87%
10:00 +18°C° 0.5 mm 1 mps 744 mmHg 85%
11:00 +18°C° 0.5 mm 1 mps 744 mmHg 84%
12:00 +18°C° 0.2 mm 1 mps 744 mmHg 85%
13:00 +18°C° 0.2 mm 1 mps 744 mmHg 86%
14:00 +18°C° 0.2 mm 1 mps 743 mmHg 87%
15:00 +16°C° 1 mm 1 mps 743 mmHg 90%
16:00 +15°C° 1 mm 1 mps 743 mmHg 93%
17:00 +15°C° 1 mm 1 mps 744 mmHg 96%
18:00 +15°C° 0.8 mm 1 mps 743 mmHg 96%
19:00 +14°C° 0.8 mm 1 mps 743 mmHg 97%
20:00 +14°C° 0.8 mm 1 mps 742 mmHg 97%
21:00 +14°C° 1.1 mm 2 mps 742 mmHg 97%
22:00 +14°C° 1.1 mm 2 mps 742 mmHg 97%
23:00 +14°C° 1.1 mm 2 mps 743 mmHg 97%

10 July, Friday

Time Temperature Precipitation Wind Pressure Humidity
00:00 +13°C° 0.3 mm 3 mps 742 mmHg 97%
01:00 +13°C° 0.3 mm 3 mps 742 mmHg 96%
02:00 +13°C° 0.3 mm 4 mps 742 mmHg 96%
03:00 +12°C° 0 mm 4 mps 742 mmHg 93%
04:00 +12°C° 0 mm 4 mps 743 mmHg 91%
05:00 +12°C° 0 mm 5 mps 743 mmHg 89%
06:00 +13°C° 0 mm 5 mps 743 mmHg 83%
07:00 +14°C° 0 mm 5 mps 743 mmHg 77%
08:00 +15°C° 0 mm 6 mps 743 mmHg 71%
09:00 +16°C° 0 mm 6 mps 743 mmHg 66%
10:00 +19°C° 0 mm 6 mps 743 mmHg 60%
11:00 +20°C° 0 mm 6 mps 743 mmHg 55%
12:00 +20°C° 0 mm 6 mps 743 mmHg 56%
13:00 +20°C° 0 mm 6 mps 743 mmHg 57%
14:00 +20°C° 0 mm 6 mps 743 mmHg 58%
15:00 +20°C° 0.1 mm 5 mps 743 mmHg 60%
16:00 +19°C° 0.1 mm 5 mps 743 mmHg 63%
17:00 +19°C° 0.1 mm 4 mps 743 mmHg 65%
18:00 +18°C° 0 mm 4 mps 743 mmHg 67%
19:00 +17°C° 0 mm 4 mps 743 mmHg 69%
20:00 +14°C° 0 mm 3 mps 744 mmHg 71%
21:00 +13°C° 0 mm 3 mps 744 mmHg 73%
22:00 +12°C° 0 mm 3 mps 744 mmHg 75%
23:00 +11°C° 0 mm 3 mps 744 mmHg 78%

11 July, Saturday

Time Temperature Precipitation Wind Pressure Humidity
00:00 +11°C° 0 mm 3 mps 744 mmHg 79%
01:00 +10°C° 0 mm 3 mps 744 mmHg 80%
02:00 +10°C° 0 mm 3 mps 744 mmHg 82%
03:00 +10°C° 0 mm 3 mps 744 mmHg 80%
04:00 +11°C° 0 mm 3 mps 744 mmHg 79%
05:00 +12°C° 0 mm 3 mps 744 mmHg 78%
06:00 +14°C° 0 mm 3 mps 744 mmHg 75%
07:00 +17°C° 0 mm 4 mps 743 mmHg 72%
08:00 +19°C° 0 mm 4 mps 743 mmHg 69%
09:00 +18°C° 0.2 mm 4 mps 743 mmHg 75%
10:00 +18°C° 0.2 mm 4 mps 743 mmHg 81%
11:00 +17°C° 0.2 mm 4 mps 743 mmHg 87%
12:00 +17°C° 0.4 mm 4 mps 743 mmHg 90%
13:00 +16°C° 0.4 mm 5 mps 743 mmHg 93%
14:00 +15°C° 0.4 mm 5 mps 743 mmHg 95%
15:00 +16°C° 0.1 mm 5 mps 742 mmHg 92%
16:00 +18°C° 0.1 mm 4 mps 742 mmHg 89%
17:00 +19°C° 0.1 mm 4 mps 742 mmHg 87%
18:00 +18°C° 0.1 mm 3 mps 742 mmHg 87%
19:00 +17°C° 0.1 mm 3 mps 742 mmHg 87%
20:00 +16°C° 0.1 mm 2 mps 742 mmHg 88%
21:00 +15°C° 0 mm 2 mps 742 mmHg 88%
22:00 +13°C° 0 mm 3 mps 743 mmHg 88%
23:00 +12°C° 0 mm 3 mps 743 mmHg 88%
Show more